M I D A S
Marine Information and Data Acquisition System
Tripno 1476 of the Zeeleeuw from 2008-02-19 07:49:17 to 2008-02-19 15:36:32
Back to CruiseResearch ActivitiesStationsMapUnderway DataData graphs

EquipmentUnitsComments
TimeDGPSUTC
LatitudeDGPSDM.mWGS84
LongitudeDGPSDM.mWGS84
SpeedMeteo Stationm/sRelative wind speed
DirectionMeteo StationdegRelative wind direction
TemperatureMeteo Stationdeg CelciusAir temperature
PressureMeteo StationPaAtmospheric pressure
HumidityMeteo Station%Relative humidity
Missing or incorrect values are displayed as -999
Metereological data collected by the RV Zeeleeuw from 2008-02-19 07:51:23 to 2008-02-19 15:38:05
Time Latitude Longitude Speed Direction Temperature Pressure Humidity
2008-02-19 07:52 51°13.674 2°55.889 0.2 2 -1.3 102720 100
2008-02-19 07:53 51°13.689 2°55.784 0.8 341 -1.2 102720 100
2008-02-19 07:54 51°13.692 2°55.718 3.3 355 -1.2 102710 100
2008-02-19 07:55 51°13.708 2°55.72 3.4 10 -1.2 102710 100
2008-02-19 07:56 51°13.795 2°55.666 2.6 359 -1.1 102710 100
2008-02-19 07:57 51°13.91 2°55.578 2.6 355 -1.2 102710 100
2008-02-19 07:58 51°13.999 2°55.513 3.9 19 -1.2 102710 100
2008-02-19 07:59 51°14.076 2°55.455 2.8 19 -1.1 102710 100
2008-02-19 08:00 51°14.171 2°55.368 3.1 353 -1.1 102700 100
2008-02-19 08:01 51°14.286 2°55.201 3.1 3 -1.1 102700 100
2008-02-19 08:02 51°14.386 2°54.964 2.2 356 -1.1 102700 100
2008-02-19 08:03 51°14.482 2°54.694 3.2 -999 -1 102710 100
2008-02-19 08:04 51°14.6 2°54.426 3.1 358 -1 102700 100
2008-02-19 08:05 51°14.664 2°54.112 2.3 2 -0.9 102700 100
2008-02-19 08:06 51°14.726 2°53.893 5.1 19 -0.9 102690 100
2008-02-19 08:07 51°14.774 2°53.822 6.3 18 -0.9 102690 100
2008-02-19 08:08 51°14.806 2°53.787 6 18 -1 102690 100
2008-02-19 08:09 51°14.827 2°53.763 7.4 14 -0.9 102690 100
2008-02-19 08:10 51°14.807 2°53.747 6.5 28 -0.9 102690 100
2008-02-19 08:11 51°14.752 2°53.752 7.4 31 -1 102670 100
2008-02-19 08:12 51°14.774 2°53.748 7 356 -1 102680 100
2008-02-19 08:13 51°14.799 2°53.814 6.8 334 -1.1 102680 100
2008-02-19 08:14 51°14.805 2°53.862 7.1 342 -1.2 102690 100
2008-02-19 08:15 51°14.806 2°53.868 7 353 -1.2 102680 100
2008-02-19 08:16 51°14.811 2°53.861 6.3 6 -1.3 102680 100
2008-02-19 08:17 51°14.818 2°53.853 4.9 5 -1.3 102670 100
2008-02-19 08:18 51°14.823 2°53.846 6.9 360 -1.3 102680 100
2008-02-19 08:19 51°14.826 2°53.838 6.9 355 -1.3 102680 100
2008-02-19 08:20 51°14.828 2°53.83 6.1 353 -1.3 102680 100
2008-02-19 08:21 51°14.831 2°53.827 5.5 349 -1.2 102680 100
2008-02-19 08:22 51°14.833 2°53.828 6.3 343 -1.3 102680 100
2008-02-19 08:23 51°14.833 2°53.832 6.6 345 -1.4 102680 100
2008-02-19 08:24 51°14.834 2°53.856 6.4 338 -1.4 102680 100
2008-02-19 08:25 51°14.867 2°54.005 9.5 339 -1.4 102670 100
2008-02-19 08:26 51°14.926 2°54.139 8 351 -1.4 102670 100
2008-02-19 08:27 51°14.988 2°54.247 8.1 346 -1.4 102670 100
2008-02-19 08:28 51°15.039 2°54.338 7.5 351 -1.5 102670 100
2008-02-19 08:29 51°15.076 2°54.417 7.4 350 -1.5 102670 100
2008-02-19 08:30 51°15.101 2°54.472 5.9 347 -1.6 102680 100
2008-02-19 08:31 51°15.112 2°54.501 5.9 354 -1.5 102680 100
2008-02-19 08:32 51°15.115 2°54.512 5.9 346 -1.5 102680 100
2008-02-19 08:33 51°15.118 2°54.516 4.9 350 -1.4 102680 100
2008-02-19 08:34 51°15.121 2°54.515 4.6 2 -1.4 102680 100
2008-02-19 08:35 51°15.123 2°54.509 4.9 3 -1.4 102680 100
2008-02-19 08:36 51°15.125 2°54.502 5.2 -999 -1.3 102670 100
2008-02-19 08:37 51°15.13 2°54.5 6 357 -1.2 102680 100
2008-02-19 08:38 51°15.136 2°54.502 5.3 351 -1.1 102680 100
2008-02-19 08:39 51°15.142 2°54.506 5.8 355 -1.3 102680 100
2008-02-19 08:40 51°15.146 2°54.507 5 350 -1.4 102690 100
2008-02-19 08:41 51°15.169 2°54.559 6.9 342 -1.4 102680 100
2008-02-19 08:42 51°15.262 2°54.744 10 345 -1.4 102680 100
2008-02-19 08:43 51°15.382 2°54.99 10.2 340 -1.2 102680 100
2008-02-19 08:44 51°15.512 2°55.234 9.9 339 -1.2 102670 100
2008-02-19 08:45 51°15.63 2°55.47 9.3 346 -1.2 102670 100
2008-02-19 08:46 51°15.719 2°55.646 7.2 346 -1.1 102680 100
2008-02-19 08:47 51°15.754 2°55.743 6.1 329 -1.1 102690 100
2008-02-19 08:48 51°15.76 2°55.802 6.8 345 -1.2 102690 100
2008-02-19 08:49 51°15.795 2°55.835 5.8 10 -1.1 102680 100
2008-02-19 08:50 51°15.808 2°55.834 4.9 14 -1.1 102690 100
2008-02-19 08:51 51°15.81 2°55.828 4.5 19 -1 102690 100
2008-02-19 08:52 51°15.811 2°55.82 4.9 24 -0.9 102690 100
2008-02-19 08:53 51°15.811 2°55.81 5.5 28 -0.9 102680 100
2008-02-19 08:54 51°15.812 2°55.799 5.9 24 -0.9 102680 100
2008-02-19 08:55 51°15.815 2°55.789 5.2 22 -0.9 102680 100
2008-02-19 08:56 51°15.82 2°55.78 6 21 -0.9 102680 100
2008-02-19 08:57 51°15.827 2°55.775 5 21 -0.9 102680 100
2008-02-19 08:58 51°15.834 2°55.771 4.9 10 -0.9 102680 100
2008-02-19 08:59 51°15.841 2°55.77 5 5 -0.8 102680 100
2008-02-19 09:00 51°15.851 2°55.772 5 356 -0.9 102680 100
2008-02-19 09:01 51°15.87 2°55.806 5.5 336 -0.9 102680 100
2008-02-19 09:02 51°15.87 2°55.888 6.7 329 -0.9 102680 100
2008-02-19 09:03 51°15.882 2°55.99 7 333 -0.9 102680 100
2008-02-19 09:04 51°15.9 2°56.052 5.9 340 -0.9 102680 100
2008-02-19 09:05 51°15.904 2°56.079 6 326 -0.9 102680 100
2008-02-19 09:06 51°15.905 2°56.099 4.5 322 -0.9 102680 100
2008-02-19 09:07 51°15.902 2°56.116 4.9 325 -0.9 102680 100
2008-02-19 09:08 51°15.9 2°56.131 3.9 323 -0.9 102670 100
2008-02-19 09:09 51°15.899 2°56.145 4.7 322 -0.9 102670 100
2008-02-19 09:10 51°15.897 2°56.158 5.7 321 -0.8 102670 100
2008-02-19 09:11 51°15.894 2°56.169 4.4 323 -0.7 102670 100
2008-02-19 09:12 51°15.892 2°56.179 4.2 320 -0.8 102670 100
2008-02-19 09:13 51°15.891 2°56.19 4.7 323 -0.8 102670 100
2008-02-19 09:14 51°15.888 2°56.198 4.8 318 -0.8 102670 100
2008-02-19 09:15 51°15.887 2°56.207 5.1 30 -0.7 102660 100
2008-02-19 09:16 51°15.886 2°56.216 5.4 33 -0.7 102670 100
2008-02-19 09:17 51°15.882 2°56.231 4.6 37 -0.7 102670 100
2008-02-19 09:18 51°15.882 2°56.294 6.8 340 -0.7 102660 100
2008-02-19 09:19 51°15.939 2°56.338 4.5 21 -0.7 102660 100
2008-02-19 09:20 51°15.969 2°56.26 3.2 36 -0.7 102670 100
2008-02-19 09:21 51°15.897 2°56.144 5.3 248 -0.6 102670 100
2008-02-19 09:22 51°15.776 2°55.943 5 241 -0.6 102670 100
2008-02-19 09:23 51°15.651 2°55.712 3.5 245 -0.6 102670 100
2008-02-19 09:24 51°15.529 2°55.473 3.4 243 -0.5 102660 100
2008-02-19 09:25 51°15.404 2°55.244 4.1 35 -0.5 102660 100
2008-02-19 09:26 51°15.287 2°54.993 3.7 247 -0.5 102650 100
2008-02-19 09:27 51°15.182 2°54.751 2.6 257 -0.6 102660 100
2008-02-19 09:28 51°15.096 2°54.555 2 38 -0.6 102660 100
2008-02-19 09:29 51°15.034 2°54.42 2.2 266 -0.7 102660 100
2008-02-19 09:30 51°15.001 2°54.336 3.9 37 -0.7 102660 100
2008-02-19 09:31 51°14.99 2°54.275 4 36 -0.7 102660 100
2008-02-19 09:32 51°14.976 2°54.24 5.5 32 -0.6 102660 100
2008-02-19 09:33 51°14.962 2°54.221 5.4 270 -0.5 102660 100
2008-02-19 09:34 51°14.956 2°54.216 4.6 37 -0.6 102660 100
2008-02-19 09:35 51°14.953 2°54.216 4.8 31 -0.7 102660 100
2008-02-19 09:36 51°14.951 2°54.219 4.5 32 -0.8 102660 100
2008-02-19 09:37 51°14.95 2°54.229 6.3 270 -0.7 102660 100
2008-02-19 09:38 51°14.95 2°54.241 4.7 268 -0.7 102660 100
2008-02-19 09:39 51°14.953 2°54.256 3.3 263 -0.7 102640 100
2008-02-19 09:40 51°14.957 2°54.271 4 261 -0.6 102640 100
2008-02-19 09:41 51°14.962 2°54.287 6.7 253 -0.7 102630 100
2008-02-19 09:42 51°14.958 2°54.3 7.2 257 -0.7 102640 100
2008-02-19 09:43 51°14.939 2°54.266 3.9 37 -0.6 102640 100
2008-02-19 09:44 51°14.932 2°54.185 3.8 34 -0.6 102640 100
2008-02-19 09:45 51°14.911 2°54.109 3.1 33 -0.7 102650 100
2008-02-19 09:46 51°14.905 2°54.067 5.1 31 -0.7 102650 100
2008-02-19 09:47 51°14.91 2°54.054 4.1 36 -0.8 102660 100
2008-02-19 09:48 51°14.917 2°54.044 4.2 37 -0.8 102650 100
2008-02-19 09:49 51°14.924 2°54.036 4.3 32 -0.9 102650 100
2008-02-19 09:50 51°14.93 2°54.032 5.6 35 -0.8 102650 100
2008-02-19 09:51 51°14.934 2°54.032 4.2 30 -0.8 102660 100
2008-02-19 09:52 51°14.935 2°54.01 3.2 37 -0.7 102660 100
2008-02-19 09:53 51°14.994 2°53.958 5.1 8 -0.6 102640 100
2008-02-19 09:54 51°15.099 2°54.065 8.4 349 -0.6 102640 100
2008-02-19 09:55 51°15.267 2°54.25 9.1 350 -0.7 102590 100
2008-02-19 09:56 51°15.453 2°54.46 10.3 341 -0.7 102580 100
2008-02-19 09:57 51°15.638 2°54.672 10.4 347 -0.5 102580 100
2008-02-19 09:58 51°15.822 2°54.887 12.1 344 -0.5 102580 100
2008-02-19 09:59 51°16.008 2°55.103 9.9 349 -0.5 102590 100
2008-02-19 10:00 51°16.196 2°55.32 10.1 344 -0.4 102580 100
2008-02-19 10:01 51°16.345 2°55.503 7.4 351 -0.3 102630 100
2008-02-19 10:02 51°16.429 2°55.546 4.7 24 -0.2 102640 100
2008-02-19 10:03 51°16.461 2°55.496 2.8 34 -0.1 102650 100
2008-02-19 10:04 51°16.428 2°55.461 2.8 263 -0.2 102650 100
2008-02-19 10:05 51°16.397 2°55.399 2.2 267 -0.1 102650 100
2008-02-19 10:06 51°16.364 2°55.343 3.3 262 -999 102650 100
2008-02-19 10:07 51°16.347 2°55.316 2.8 266 -0.1 102650 100
2008-02-19 10:08 51°16.343 2°55.297 4.2 32 -999 102650 100
2008-02-19 10:09 51°16.342 2°55.29 5 35 -0.1 102640 100
2008-02-19 10:10 51°16.343 2°55.292 5 34 -0.1 102640 100
2008-02-19 10:11 51°16.343 2°55.302 4.2 36 -0.1 102640 100
2008-02-19 10:12 51°16.343 2°55.316 5.6 271 -0.2 102650 100
2008-02-19 10:13 51°16.346 2°55.334 4.4 270 -0.1 102640 100
2008-02-19 10:14 51°16.35 2°55.355 4.4 264 -0.2 102640 100
2008-02-19 10:15 51°16.356 2°55.378 5.1 265 -0.2 102640 100
2008-02-19 10:16 51°16.363 2°55.403 4.6 259 -0.2 102640 100
2008-02-19 10:17 51°16.368 2°55.429 6 260 -0.2 102640 100
2008-02-19 10:18 51°16.369 2°55.451 3.9 267 -0.2 102630 100
2008-02-19 10:19 51°16.367 2°55.466 5.1 36 -0.1 102630 100
2008-02-19 10:20 51°16.364 2°55.449 4.7 31 -0.2 102630 100
2008-02-19 10:21 51°16.363 2°55.413 3.5 31 -0.2 102630 100
2008-02-19 10:22 51°16.359 2°55.385 2.6 37 -0.2 102640 100
2008-02-19 10:23 51°16.347 2°55.35 4.1 269 -999 102630 100
2008-02-19 10:24 51°16.296 2°55.218 4.3 258 -999 102610 100
2008-02-19 10:25 51°16.204 2°54.999 3.5 248 -999 102590 100
2008-02-19 10:26 51°16.097 2°54.756 4.5 235 -999 102590 100
2008-02-19 10:27 51°15.983 2°54.527 4.8 240 -999 102590 100
2008-02-19 10:28 51°15.861 2°54.314 5.5 243 -999 102580 100
2008-02-19 10:29 51°15.737 2°54.097 5.4 243 -999 102580 100
2008-02-19 10:30 51°15.632 2°53.901 2.7 269 0.1 102630 100
2008-02-19 10:31 51°15.583 2°53.838 6.1 270 -999 102620 100
2008-02-19 10:32 51°15.565 2°53.812 4.3 30 -999 102620 100
2008-02-19 10:33 51°15.559 2°53.77 3.7 38 -0.1 102620 100
2008-02-19 10:34 51°15.547 2°53.724 5.7 31 -0.1 102620 100
2008-02-19 10:35 51°15.543 2°53.717 6.4 35 -0.1 102620 100
2008-02-19 10:36 51°15.542 2°53.719 5.2 270 -999 102620 100
2008-02-19 10:37 51°15.542 2°53.727 6.3 34 -999 102610 100
2008-02-19 10:38 51°15.541 2°53.734 6.4 268 -999 102610 100
2008-02-19 10:39 51°15.539 2°53.734 4.2 37 -999 102610 100
2008-02-19 10:40 51°15.537 2°53.727 5.7 37 -0.1 102610 100
2008-02-19 10:41 51°15.532 2°53.719 7.5 331 -0.1 102610 100
2008-02-19 10:42 51°15.526 2°53.713 4.8 35 -0.1 102610 100
2008-02-19 10:43 51°15.517 2°53.71 5.6 264 -999 102610 100
2008-02-19 10:44 51°15.503 2°53.704 5.9 267 -0.1 102610 100
2008-02-19 10:45 51°15.475 2°53.657 3.7 36 -0.1 102600 100
2008-02-19 10:46 51°15.441 2°53.531 2.5 35 -0.2 102590 100
2008-02-19 10:47 51°15.411 2°53.458 2.8 35 -0.2 102610 100
2008-02-19 10:48 51°15.409 2°53.41 2.9 33 0.1 102610 100
2008-02-19 10:49 51°15.418 2°53.394 4.3 32 0.3 102610 100
2008-02-19 10:50 51°15.429 2°53.388 3.6 36 0.1 102610 100
2008-02-19 10:51 51°15.439 2°53.384 4.6 33 -999 102610 100
2008-02-19 10:52 51°15.409 2°53.313 2.8 258 -999 102600 100
2008-02-19 10:53 51°15.3 2°53.19 4.7 250 0.1 102580 100
2008-02-19 10:54 51°15.211 2°53.083 5.2 258 0.1 102600 100
2008-02-19 10:55 51°15.163 2°53.064 6.4 269 0.1 102600 100
2008-02-19 10:56 51°15.146 2°53.027 3.8 37 0.1 102600 100
2008-02-19 10:57 51°15.138 2°52.972 5.5 31 -999 102600 100
2008-02-19 10:58 51°15.128 2°52.96 4.4 38 -999 102590 100
2008-02-19 10:59 51°15.123 2°52.965 6.1 270 -999 102590 100
2008-02-19 11:00 51°15.118 2°52.972 7.7 35 0.1 102600 100
2008-02-19 11:01 51°15.115 2°52.968 7.1 31 0.1 102590 100
2008-02-19 11:02 51°15.116 2°52.958 2.6 34 -999 102600 100
2008-02-19 11:03 51°15.127 2°52.94 6 39 -999 102590 100
2008-02-19 11:04 51°15.154 2°52.853 3.8 40 -999 102580 100
2008-02-19 11:05 51°15.216 2°52.662 5.3 21 -999 102570 100
2008-02-19 11:06 51°15.342 2°52.476 6.8 9 -0.1 102560 100
2008-02-19 11:07 51°15.507 2°52.348 6.2 1 -999 102560 100
2008-02-19 11:08 51°15.712 2°52.285 7.2 5 0.1 102530 100
2008-02-19 11:09 51°15.918 2°52.389 14.1 336 0.3 102520 100
2008-02-19 11:10 51°16.048 2°52.705 13.8 338 0.3 102530 100
2008-02-19 11:11 51°16.164 2°53.025 12 338 0.3 102530 100
2008-02-19 11:12 51°16.285 2°53.352 12.1 340 0.4 102530 100
2008-02-19 11:13 51°16.407 2°53.684 13.4 341 0.5 102580 100
2008-02-19 11:14 51°16.513 2°53.972 10.6 335 0.5 102570 100
2008-02-19 11:15 51°16.558 2°54.138 7.3 342 0.5 102580 100
2008-02-19 11:16 51°16.591 2°54.244 7.6 336 0.6 102580 100
2008-02-19 11:17 51°16.622 2°54.321 6.7 346 0.6 102580 100
2008-02-19 11:18 51°16.65 2°54.377 6.5 343 0.7 102580 100
2008-02-19 11:19 51°16.676 2°54.421 7.3 346 0.5 102570 100
2008-02-19 11:20 51°16.698 2°54.458 7.5 348 0.4 102580 100
2008-02-19 11:21 51°16.719 2°54.486 7.2 359 0.3 102570 100
2008-02-19 11:22 51°16.737 2°54.51 7.6 11 0.3 102570 100
2008-02-19 11:23 51°16.753 2°54.533 6.9 16 0.3 102570 100
2008-02-19 11:24 51°16.768 2°54.556 6.5 23 0.3 102570 100
2008-02-19 11:25 51°16.783 2°54.579 6.6 32 0.4 102570 100
2008-02-19 11:26 51°16.797 2°54.602 7.5 29 0.5 102570 100
2008-02-19 11:27 51°16.811 2°54.624 6.2 30 0.4 102570 100
2008-02-19 11:28 51°16.824 2°54.648 7.3 30 0.5 102570 100
2008-02-19 11:29 51°16.837 2°54.671 6.7 30 0.4 102560 100
2008-02-19 11:30 51°16.849 2°54.693 6.7 28 0.4 102560 100
2008-02-19 11:31 51°16.862 2°54.716 8.2 32 0.5 102560 100
2008-02-19 11:32 51°16.875 2°54.739 6.5 35 0.4 102560 100
2008-02-19 11:33 51°16.89 2°54.763 5.5 35 0.4 102560 100
2008-02-19 11:34 51°16.905 2°54.787 6.1 32 0.5 102560 100
2008-02-19 11:35 51°16.919 2°54.81 6.5 32 0.5 102560 100
2008-02-19 11:36 51°16.934 2°54.833 7.2 33 0.6 102560 100
2008-02-19 11:37 51°16.95 2°54.855 7.4 30 0.6 102550 100
2008-02-19 11:38 51°16.966 2°54.878 7.5 32 0.6 102550 100
2008-02-19 11:39 51°16.981 2°54.9 6.1 27 0.7 102550 100
2008-02-19 11:40 51°16.997 2°54.924 6 26 0.9 102550 100
2008-02-19 11:41 51°17.011 2°54.947 6.6 30 0.9 102550 100
2008-02-19 11:42 51°17.026 2°54.97 6 31 0.7 102550 100
2008-02-19 11:43 51°17.042 2°54.993 5.6 35 0.7 102550 100
2008-02-19 11:44 51°17.057 2°55.016 6.7 33 0.7 102540 100
2008-02-19 11:45 51°17.072 2°55.039 7 31 0.7 102540 100
2008-02-19 11:46 51°17.087 2°55.062 7.3 29 0.7 102540 100
2008-02-19 11:47 51°17.102 2°55.085 6.2 29 0.8 102540 100
2008-02-19 11:48 51°17.118 2°55.109 6 27 0.8 102540 100
2008-02-19 11:49 51°17.132 2°55.132 5.9 36 0.8 102540 100
2008-02-19 11:50 51°17.146 2°55.154 6.6 34 0.9 102540 100
2008-02-19 11:51 51°17.163 2°55.177 7.1 26 1 102540 100
2008-02-19 11:52 51°17.189 2°55.198 7.5 11 0.9 102530 100
2008-02-19 11:53 51°17.23 2°55.234 6.8 353 0.9 102530 100
2008-02-19 11:54 51°17.271 2°55.304 7.6 330 0.8 102540 100
2008-02-19 11:55 51°17.28 2°55.404 7.6 240 0.8 102530 100
2008-02-19 11:56 51°17.247 2°55.447 5.7 32 0.9 102520 100
2008-02-19 11:57 51°17.209 2°55.416 5.5 38 0.9 102540 100
2008-02-19 11:58 51°17.159 2°55.375 4.8 32 0.9 102530 100
2008-02-19 11:59 51°17.103 2°55.306 3.4 270 0.9 102520 100
2008-02-19 12:00 51°17.032 2°55.217 5.4 256 0.9 102530 100
2008-02-19 12:01 51°16.97 2°55.15 5.2 269 1 102530 100
2008-02-19 12:02 51°16.949 2°55.104 5.6 268 1 102530 100
2008-02-19 12:03 51°16.928 2°55.078 4.8 265 1.1 102520 100
2008-02-19 12:04 51°16.906 2°55.048 6.3 32 1.2 102520 100
2008-02-19 12:05 51°16.892 2°55.025 5.7 266 1.1 102530 100
2008-02-19 12:06 51°16.884 2°55.027 4.7 268 1 102520 100
2008-02-19 12:07 51°16.88 2°55.036 6.2 273 1.1 102520 100
2008-02-19 12:08 51°16.878 2°55.047 6.5 266 1.2 102520 100
2008-02-19 12:09 51°16.868 2°55.051 4.4 265 1.1 102520 100
2008-02-19 12:10 51°16.833 2°55.01 3.8 32 1.1 102510 100
2008-02-19 12:11 51°16.825 2°54.924 3.9 264 1.1 102520 100
2008-02-19 12:12 51°16.782 2°54.862 5.9 268 1.1 102510 100
2008-02-19 12:13 51°16.75 2°54.806 4 262 1 102520 100
2008-02-19 12:14 51°16.73 2°54.791 4.6 270 1 102500 100
2008-02-19 12:15 51°16.727 2°54.789 5.7 32 1 102510 100
2008-02-19 12:16 51°16.724 2°54.79 5.2 267 0.9 102510 100
2008-02-19 12:17 51°16.722 2°54.793 7.1 270 0.9 102530 100
2008-02-19 12:18 51°16.703 2°54.776 5.5 269 1 102500 100
2008-02-19 12:19 51°16.652 2°54.684 2.8 260 1 102500 100
2008-02-19 12:20 51°16.567 2°54.527 6 259 1 102480 100
2008-02-19 12:21 51°16.478 2°54.339 6.5 257 1 102490 100
2008-02-19 12:22 51°16.395 2°54.16 2.7 262 1.1 102490 100
2008-02-19 12:23 51°16.337 2°54.038 3.6 267 1.1 102500 100
2008-02-19 12:24 51°16.289 2°53.938 5.4 35 1.1 102500 100
2008-02-19 12:25 51°16.251 2°53.861 5.3 33 1 102500 100
2008-02-19 12:26 51°16.236 2°53.822 5 35 1 102500 100
2008-02-19 12:27 51°16.244 2°53.813 5.2 35 1 102500 100
2008-02-19 12:28 51°16.256 2°53.808 4.6 34 0.9 102500 100
2008-02-19 12:29 51°16.265 2°53.801 5.7 31 1.1 102490 100
2008-02-19 12:30 51°16.265 2°53.795 8.6 270 1.1 102480 100
2008-02-19 12:31 51°16.258 2°53.802 9.4 259 1.1 102470 100
2008-02-19 12:32 51°16.249 2°53.819 4.4 259 1.1 102480 100
2008-02-19 12:33 51°16.238 2°53.834 4.3 261 1.1 102470 100
2008-02-19 12:34 51°16.228 2°53.843 6.4 32 1.1 102480 100
2008-02-19 12:35 51°16.219 2°53.843 5 268 1 102480 100
2008-02-19 12:36 51°16.209 2°53.839 7.6 270 1.2 102470 100
2008-02-19 12:37 51°16.198 2°53.837 6.7 267 1.1 102470 100
2008-02-19 12:38 51°16.191 2°53.838 4.6 265 1.1 102470 100
2008-02-19 12:39 51°16.18 2°53.829 5.7 41 1 102460 100
2008-02-19 12:40 51°16.128 2°53.747 4.6 32 1 102450 100
2008-02-19 12:41 51°16.084 2°53.652 4 30 1.2 102460 100
2008-02-19 12:42 51°16.063 2°53.495 1.6 36 1.3 102460 100
2008-02-19 12:43 51°15.989 2°53.229 2.8 259 1.4 102420 100
2008-02-19 12:44 51°15.871 2°52.998 4.3 252 1.4 102420 100
2008-02-19 12:45 51°15.731 2°52.788 4.2 251 1.5 102410 100
2008-02-19 12:46 51°15.592 2°52.577 4.8 256 1.4 102420 100
2008-02-19 12:47 51°15.451 2°52.368 4.5 253 1.4 102410 100
2008-02-19 12:48 51°15.31 2°52.157 3.1 258 1.4 102410 100
2008-02-19 12:49 51°15.169 2°51.944 6.8 24 1.5 102400 100
2008-02-19 12:50 51°15.057 2°51.733 1.6 29 1.7 102420 100
2008-02-19 12:51 51°15.019 2°51.541 3.4 270 1.7 102430 100
2008-02-19 12:52 51°14.994 2°51.442 3.8 31 1.6 102440 100
2008-02-19 12:53 51°15.002 2°51.419 7.6 44 1.7 102430 100
2008-02-19 12:54 51°15.012 2°51.418 7.7 37 1.5 102430 100
2008-02-19 12:55 51°15.025 2°51.419 6.7 33 1.5 102430 100
2008-02-19 12:56 51°15.037 2°51.422 8.1 29 1.5 102430 100
2008-02-19 12:57 51°15.047 2°51.427 6.7 29 1.5 102430 100
2008-02-19 12:58 51°15.048 2°51.434 6.3 25 1.6 102430 100
2008-02-19 12:59 51°15.047 2°51.443 7.7 29 1.6 102430 100
2008-02-19 13:00 51°15.141 2°51.47 10.5 356 1.6 102420 100
2008-02-19 13:01 51°15.311 2°51.576 11.2 348 1.5 102410 100
2008-02-19 13:02 51°15.484 2°51.713 11.1 342 1.3 102400 100
2008-02-19 13:03 51°15.65 2°51.88 11.3 348 1.2 102380 100
2008-02-19 13:04 51°15.816 2°52.048 13.1 342 1.3 102380 100
2008-02-19 13:05 51°15.966 2°52.238 13.9 341 1.3 102380 100
2008-02-19 13:06 51°16.09 2°52.474 13.5 338 1.3 102420 100
2008-02-19 13:07 51°16.224 2°52.701 12.8 340 1.2 102390 100
2008-02-19 13:08 51°16.361 2°52.926 13.4 340 1.1 102380 100
2008-02-19 13:09 51°16.498 2°53.151 11.3 345 1.2 102390 100
2008-02-19 13:10 51°16.637 2°53.376 12.4 341 1.2 102380 100
2008-02-19 13:11 51°16.743 2°53.461 7.4 19 1.1 102400 100
2008-02-19 13:12 51°16.791 2°53.41 5 37 1.2 102420 100
2008-02-19 13:13 51°16.787 2°53.339 3.7 38 1.4 102420 100
2008-02-19 13:14 51°16.76 2°53.258 3.5 35 1.4 102430 100
2008-02-19 13:15 51°16.74 2°53.195 5.9 38 1.4 102430 100
2008-02-19 13:16 51°16.717 2°53.148 5.2 33 1.3 102430 100
2008-02-19 13:17 51°16.696 2°53.107 6.4 30 1.3 102430 100
2008-02-19 13:18 51°16.683 2°53.078 5.5 32 1.3 102430 100
2008-02-19 13:19 51°16.678 2°53.061 6.7 35 1.4 102440 100
2008-02-19 13:20 51°16.677 2°53.057 6.4 39 1.3 102440 100
2008-02-19 13:21 51°16.677 2°53.058 5.6 34 1.2 102440 100
2008-02-19 13:22 51°16.676 2°53.061 7.1 270 1.2 102430 100
2008-02-19 13:23 51°16.674 2°53.065 7.3 267 1.2 102440 100
2008-02-19 13:24 51°16.665 2°53.065 5.6 268 1.3 102440 100
2008-02-19 13:25 51°16.648 2°53.049 6.7 36 1.3 102440 100
2008-02-19 13:26 51°16.617 2°52.953 3.5 35 1.1 102440 100
2008-02-19 13:27 51°16.568 2°52.852 5.1 35 1.2 102430 100
2008-02-19 13:28 51°16.549 2°52.76 5.2 31 1.2 102430 100
2008-02-19 13:29 51°16.518 2°52.711 4.6 264 1.4 102430 100
2008-02-19 13:30 51°16.505 2°52.698 6.3 32 1.5 102420 100
2008-02-19 13:31 51°16.501 2°52.69 6.8 270 1.4 102430 100
2008-02-19 13:32 51°16.499 2°52.686 6 261 1.3 102420 100
2008-02-19 13:33 51°16.498 2°52.683 5.7 267 1.3 102430 100
2008-02-19 13:34 51°16.497 2°52.68 5 269 1.3 102420 100
2008-02-19 13:35 51°16.497 2°52.677 3.8 262 1.4 102420 100
2008-02-19 13:36 51°16.485 2°52.658 5.6 37 1.5 102410 100
2008-02-19 13:37 51°16.464 2°52.621 4.5 265 1.4 102410 100
2008-02-19 13:38 51°16.459 2°52.608 5.5 38 1.4 102410 100
2008-02-19 13:39 51°16.462 2°52.597 5.6 31 1.4 102410 100
2008-02-19 13:40 51°16.464 2°52.588 5.5 35 1.3 102410 100
2008-02-19 13:41 51°16.468 2°52.583 5.3 270 1.4 102410 100
2008-02-19 13:42 51°16.47 2°52.58 5.9 266 1.4 102410 100
2008-02-19 13:43 51°16.47 2°52.576 7.3 35 1.4 102410 100
2008-02-19 13:44 51°16.468 2°52.57 6.4 35 1.4 102400 100
2008-02-19 13:45 51°16.462 2°52.56 6.1 38 1.3 102410 100
2008-02-19 13:46 51°16.436 2°52.508 3.3 265 1.3 102400 100
2008-02-19 13:47 51°16.377 2°52.443 4.1 263 1.3 102400 100
2008-02-19 13:48 51°16.329 2°52.335 4.6 30 1.2 102400 100
2008-02-19 13:49 51°16.295 2°52.275 4.4 270 1.2 102390 100
2008-02-19 13:50 51°16.293 2°52.267 6.9 32 1.2 102400 100
2008-02-19 13:51 51°16.293 2°52.26 5.8 36 1.1 102400 100
2008-02-19 13:52 51°16.292 2°52.251 5.5 30 1.2 102400 100
2008-02-19 13:53 51°16.289 2°52.241 5.9 36 1.2 102390 100
2008-02-19 13:54 51°16.285 2°52.23 7.4 14 1.2 102400 100
2008-02-19 13:55 51°16.275 2°52.215 5.2 30 1.1 102390 100
2008-02-19 13:56 51°16.27 2°52.136 5.4 37 1.1 102390 100
2008-02-19 13:57 51°16.337 2°52.096 7.8 2 1.2 102370 100
2008-02-19 13:58 51°16.464 2°52.131 8.5 355 1.2 102370 100
2008-02-19 13:59 51°16.636 2°52.189 9.5 352 1.2 102370 100
2008-02-19 14:00 51°16.815 2°52.266 11.1 352 1.4 102370 100
2008-02-19 14:01 51°16.994 2°52.348 11.2 348 1.4 102370 100
2008-02-19 14:02 51°17.17 2°52.426 9.8 348 1.2 102370 100
2008-02-19 14:03 51°17.339 2°52.523 10.2 343 1.2 102370 100
2008-02-19 14:04 51°17.48 2°52.695 10.4 344 1.1 102380 100
2008-02-19 14:05 51°17.559 2°52.815 9 341 1.2 102380 100
2008-02-19 14:06 51°17.586 2°52.852 6.4 7 1.2 102380 100
2008-02-19 14:07 51°17.593 2°52.846 5.8 31 1.2 102380 100
2008-02-19 14:08 51°17.613 2°52.825 6 41 1.3 102380 100
2008-02-19 14:09 51°17.619 2°52.824 6.1 37 1.2 102380 100
2008-02-19 14:10 51°17.624 2°52.817 5.5 37 1.2 102380 100
2008-02-19 14:11 51°17.631 2°52.806 7.4 43 1.2 102380 100
2008-02-19 14:12 51°17.638 2°52.792 6.9 39 1 102370 100
2008-02-19 14:13 51°17.647 2°52.777 6.9 37 1 102370 100
2008-02-19 14:14 51°17.657 2°52.764 6.2 29 1 102360 100
2008-02-19 14:15 51°17.671 2°52.747 6.1 29 1.1 102370 100
2008-02-19 14:16 51°17.692 2°52.679 2.9 35 1.1 102370 100
2008-02-19 14:17 51°17.691 2°52.558 4.7 40 1.1 102380 100
2008-02-19 14:18 51°17.775 2°52.473 6.9 358 1.2 102360 100
2008-02-19 14:19 51°17.935 2°52.471 9.2 357 1.2 102350 100
2008-02-19 14:20 51°18.144 2°52.473 10.8 352 1.3 102350 100
2008-02-19 14:21 51°18.358 2°52.514 10.2 351 1.3 102350 100
2008-02-19 14:22 51°18.459 2°52.623 9.4 344 1.3 102370 100
2008-02-19 14:23 51°18.505 2°52.691 7.9 356 1.4 102370 100
2008-02-19 14:24 51°18.564 2°52.728 7 354 1.4 102360 100
2008-02-19 14:25 51°18.625 2°52.763 8.9 349 1.5 102360 100
2008-02-19 14:26 51°18.672 2°52.788 5.6 353 1.4 102350 100
2008-02-19 14:27 51°18.676 2°52.772 5.7 2 1.5 102350 100
2008-02-19 14:28 51°18.68 2°52.756 9.4 11 1.4 102350 100
2008-02-19 14:29 51°18.682 2°52.742 7.4 21 1.5 102350 100
2008-02-19 14:30 51°18.685 2°52.727 6.2 30 1.5 102350 100
2008-02-19 14:31 51°18.691 2°52.708 6.5 30 1.4 102350 100
2008-02-19 14:32 51°18.718 2°52.632 3.1 30 1.5 102350 100
2008-02-19 14:33 51°18.672 2°52.508 4.9 270 1.4 102350 100
2008-02-19 14:34 51°18.573 2°52.307 2.6 262 1.5 102350 100
2008-02-19 14:35 51°18.469 2°52.091 2.1 262 1.4 102350 100
2008-02-19 14:36 51°18.363 2°51.874 3.5 261 1.5 102350 100
2008-02-19 14:37 51°18.257 2°51.656 2.3 263 1.6 102340 100
2008-02-19 14:38 51°18.146 2°51.449 5.9 259 1.6 102340 100
2008-02-19 14:39 51°18.001 2°51.326 4.9 259 1.7 102340 100
2008-02-19 14:40 51°17.915 2°51.202 4.4 34 1.7 102340 100
2008-02-19 14:41 51°17.866 2°51.14 4.4 265 1.8 102340 100
2008-02-19 14:42 51°17.852 2°51.119 6.5 262 1.7 102330 100
2008-02-19 14:43 51°17.855 2°51.105 5.9 261 1.8 102330 100
2008-02-19 14:44 51°17.857 2°51.088 5.5 263 1.8 102330 100
2008-02-19 14:45 51°17.859 2°51.071 6.6 263 2 102320 100
2008-02-19 14:46 51°17.843 2°51.057 6.9 249 2 102320 100
2008-02-19 14:47 51°17.772 2°51.111 9.1 33 2 102310 100
2008-02-19 14:48 51°17.622 2°51.254 13.2 36 2 102300 100
2008-02-19 14:49 51°17.453 2°51.416 10.8 39 1.8 102300 100
2008-02-19 14:50 51°17.281 2°51.579 13.2 35 1.8 102290 100
2008-02-19 14:51 51°17.108 2°51.739 12.4 32 1.7 102290 99
2008-02-19 14:52 51°16.936 2°51.901 12 35 1.7 102290 99
2008-02-19 14:53 51°16.767 2°52.058 10.1 23 1.7 102290 99
2008-02-19 14:54 51°16.593 2°52.222 13 19 1.7 102300 99
2008-02-19 14:55 51°16.433 2°52.401 12.9 21 1.7 102290 99
2008-02-19 14:56 51°16.266 2°52.589 10.2 24 1.7 102290 99
2008-02-19 14:57 51°16.106 2°52.78 10.5 316 1.8 102290 100
2008-02-19 14:58 51°15.945 2°52.969 9.8 27 1.8 102300 99
2008-02-19 14:59 51°15.783 2°53.156 12.5 21 1.8 102290 99
2008-02-19 15:00 51°15.622 2°53.339 10.5 26 1.8 102290 99
2008-02-19 15:01 51°15.456 2°53.53 12.1 25 1.8 102290 99
2008-02-19 15:02 51°15.293 2°53.687 9.5 25 1.8 102290 99
2008-02-19 15:03 51°15.134 2°53.826 9.3 22 1.8 102300 98
2008-02-19 15:04 51°15.009 2°53.913 10.1 21 1.8 102290 98
2008-02-19 15:05 51°14.896 2°53.978 9.2 23 1.8 102300 98
2008-02-19 15:06 51°14.787 2°54.03 9.3 21 1.9 102300 98
2008-02-19 15:07 51°14.711 2°54.063 8.5 24 1.9 102300 97
2008-02-19 15:08 51°14.651 2°54.08 5.9 23 2 102310 97
2008-02-19 15:09 51°14.613 2°54.088 5.5 20 2.1 102300 97
2008-02-19 15:10 51°14.585 2°54.085 5.1 27 2.1 102300 97
2008-02-19 15:11 51°14.563 2°54.074 7.3 21 2.1 102300 96
2008-02-19 15:12 51°14.531 2°54.114 6.9 328 2.1 102290 96
2008-02-19 15:13 51°14.523 2°54.157 6.1 340 2 102290 95
2008-02-19 15:14 51°14.521 2°54.161 6.2 347 2 102290 95
2008-02-19 15:15 51°14.529 2°54.179 5.6 337 1.8 102290 95
2008-02-19 15:16 51°14.529 2°54.172 5.2 324 1.9 102290 96
2008-02-19 15:17 51°14.525 2°54.15 4.8 332 2 102290 96
2008-02-19 15:18 51°14.521 2°54.126 5.1 334 1.9 102290 96
2008-02-19 15:19 51°14.514 2°54.098 5.7 329 1.9 102290 95
2008-02-19 15:20 51°14.508 2°54.065 6.2 324 1.9 102290 95
2008-02-19 15:21 51°14.501 2°54.029 5.9 319 1.9 102280 95
2008-02-19 15:22 51°14.491 2°53.998 6.3 25 1.9 102280 95
2008-02-19 15:23 51°14.475 2°53.994 6 322 1.9 102280 95
2008-02-19 15:24 51°14.461 2°54.056 9.8 332 1.9 102270 95
2008-02-19 15:25 51°14.441 2°54.266 13.5 328 1.9 102270 95
2008-02-19 15:26 51°14.41 2°54.556 13.6 330 1.9 102260 95
2008-02-19 15:27 51°14.382 2°54.861 12.8 327 1.9 102270 95
2008-02-19 15:28 51°14.307 2°55.152 10.4 325 1.9 102270 95
2008-02-19 15:29 51°14.184 2°55.354 6.6 320 1.9 102270 95
2008-02-19 15:30 51°14.085 2°55.437 4.4 23 1.9 102280 95
2008-02-19 15:31 51°14.025 2°55.488 4.4 25 1.9 102280 95
2008-02-19 15:32 51°13.966 2°55.533 7 21 1.9 102280 95
2008-02-19 15:33 51°13.89 2°55.591 4.7 319 1.9 102270 94
2008-02-19 15:34 51°13.812 2°55.651 3.8 318 2 102280 94
2008-02-19 15:35 51°13.743 2°55.727 8.3 320 2 102270 94
2008-02-19 15:36 51°13.688 2°55.833 5.5 329 2 102270 94
2008-02-19 15:37 51°13.67 2°55.924 3.3 320 2 102280 93